Meath Environmental Platform

Observations for Trim Market St

Time AQI Temp °C Hum % Pres Pa CO μg/m³ H₂S μg/m³ NO μg/m³ NO₂ μg/m³ O₃ μg/m³ SO₂ μg/m³ PM1 μg/m³ PM2.5 μg/m³ PM10 μg/m³
Sunday 23 August 2026
10:03 2 19.3 54 57,486 0.33 0 2.85 10.32 49.12 0 0 2.29 2.46
10:02 2 19.2 54 57,651 0.41 0 2.64 30.27 42.56 0 0 2.8 3.19
09:58 2 19.1 55 56,977 0.3 0 1.45 5.39 55.93 0 0 2.25 2.5
09:53 2 18.9 56 56,192 0.38 0 2.36 10.47 45.14 0 0 1.7 1.84
09:50 2 18.7 56 56,495 0.33 0 1.88 8.14 49.14 0 0.71 2.7 3.98
09:48 2 18.7 56 56,507 0.38 0 2.59 10.98 45.32 0 0.71 2.69 3.28
09:45 2 18.5 56 56,467 0.38 0 2.64 7.11 52.53 0 0.71 3.19 3.99
09:44 2 18.5 57 56,504 0.4 0 2.16 8.19 49.87 0 0 2.68 3.29
09:43 2 18.5 57 56,571 0.57 0 2.28 9.95 43.25 0 0.71 3.17 4.71
09:42 2 18.4 57 56,672 0.41 0 2.19 7.13 48.19 0 0.71 2.15 2.6
09:41 2 18.4 57 56,838 0.42 0 1.94 8.27 45.49 0 0.71 3.66 4.71
09:40 2 18.3 57 56,932 0.43 0 1.72 7.71 47.88 0 1.43 4.16 5.42
09:38 2 18.2 58 57,074 0.54 0 1.82 10.66 42.34 0 0.71 2.63 3.33
09:37 2 18.2 58 57,153 0.42 0 1.7 9.7 43.67 0 0.71 3.13 4.03
09:36 2 18.2 58 57,247 0.5 0 1.54 9.42 44.23 0 0 2.11 2.64
09:35 2 18.1 58 57,334 0.54 0 1.58 9.13 44.05 0 0 3.11 4.04
09:34 2 18.1 58 57,402 0.36 0 1.54 7.4 47.99 0 0 2.6 4.74
09:33 2 18 59 57,483 0.4 0 1.64 7.8 45.19 0 0.71 3.09 4.06
09:32 2 18 59 57,563 0.42 0 1.86 7.59 48.77 0 1.43 3.59 4.75
09:29 2 17.9 59 57,671 0.37 0 2.8 7.7 45.45 0 0 2.56 4.07